Flag for U.S.A. Weather past 2 weeks in Paterson, New Jersey, U.S.A.

Now
31 °F

Overcast.


Feels Like: 27 °F
Forecast: 27 / 39 °F
Wind: 3 mph from Northeast

Location: Essex County Airport

Current Time: Dec 20, 2014 at 11:13:24 PM

Latest Report: Dec 20, 2014 at 9:53 PM


Visibility: 10 mi

Pressure: 30.31 "Hg

Humidity: 67%

Dew point: 21 °F

Location of PatersonLocation

Historic Weather in Paterson — Graph

°F

Paterson temperature yesterday

Maximum temperature yesterday: 36 °F (at 12:53 AM)
Minimum temperature yesterday: 31 °F (at 6:53 PM)
Average temperature yesterday: 34 °F

Past Weeks' High & Low Weather Summary

 TemperatureHumidityPressure
High52 °F (Dec 17, 12:53 PM)100% (Dec 9, 5:53 AM)30.74 "Hg (Dec 9, 5:53 AM)
Low21 °F (Dec 8, 5:53 AM)27% (Dec 7, 3:53 PM)29.63 "Hg (Dec 10, 5:03 PM)
Average36 °F69%30.06 "Hg
* Reported Dec 5 9:03 PM — Dec 20 9:53 PM, Paterson, Weather by CustomWeather, © 2014

Note: Actual official high and low records may vary slightly from our data, if they occured in-between our weather recording intervals... More about our weather records

Advertising

Paterson weather history for previous 24 hours

 ConditionsComfort  
Time TempWeatherWind HumidityBarometerVisibility
9:53 PM
Dec 20
31 °FOvercast.3 mph67%30.31 "Hg10 mi
8:53 PM31 °FOvercast.3 mph67%30.32 "Hg10 mi
7:53 PM31 °FOvercast.3 mph67%30.31 "Hg10 mi
6:53 PM32 °FOvercast.No wind61%30.31 "Hg10 mi
5:53 PM32 °FOvercast.No wind64%30.31 "Hg10 mi
4:53 PM32 °FOvercast.3 mph61%30.29 "Hg10 mi
3:53 PM32 °FOvercast.3 mph61%30.29 "Hg10 mi
2:53 PM31 °FOvercast.No wind61%30.28 "Hg10 mi
1:53 PM31 °FOvercast.5 mph64%30.28 "Hg10 mi
12:53 PM31 °FOvercast.6 mph64%30.29 "Hg10 mi
11:53 AM30 °FOvercast.3 mph66%30.31 "Hg10 mi
10:53 AM30 °FOvercast.3 mph66%30.32 "Hg10 mi
9:53 AM30 °FOvercast.3 mph66%30.34 "Hg10 mi
8:53 AM30 °FOvercast.6 mph69%30.31 "Hg10 mi
7:53 AM30 °FOvercast.3 mph69%30.29 "Hg10 mi
6:53 AM30 °FOvercast.No wind66%30.29 "Hg10 mi
5:53 AM30 °FOvercast.No wind69%30.28 "Hg10 mi
4:53 AM31 °FOvercast.No wind67%30.26 "Hg10 mi
3:53 AM31 °FOvercast.5 mph67%30.24 "Hg10 mi
2:53 AM31 °FOvercast.3 mph67%30.22 "Hg10 mi
1:53 AM31 °FOvercast.3 mph67%30.22 "Hg10 mi
12:53 AM31 °FOvercast.3 mph67%30.22 "Hg10 mi
11:53 PM
Dec 19
31 °FOvercast.6 mph67%30.22 "Hg10 mi
Weather by CustomWeather, © 2014

See weather overviewHow to use our weather pages